Theta_e
285 284 284 284 284 284 283 282 281 281 281 280 280 279 279 278 278 277 277 277 277 277 277 276 277 277 276 276 276 276 276 275 273 275 276 277 277 277 279 279 280 280 282
284 284 284 284 283 282 282 282 281 280 280 279 279 278 278 278 277 277 276 276 276 276 276 276 275 277 274 275 274 274 274 274 272 272 274 274 274 276 276 276 278 280 279
284 283 282 282 282 281 281 281 280 279 278 278 278 277 277 277 276 276 276 276 275 275 276 275 275 275 274 274 272 272 273 274 273 272 271 274 274 274 274 275 276 276 279
283 283 281 281 281 281 281 280 279 279 278 277 277 276 276 276 275 276 276 275 275 276 276 275 275 274 274 273 273 273 274 272 272 272 271 272 273 274 274 273 273 275 275
283 282 282 281 281 281 280 279 279 278 277 277 276 275 275 275 275 275 276 275 275 275 275 276 275 275 277 277 275 273 273 271 271 271 271 271 272 272 272 274 273 273 274
283 282 282 282 281 281 279 278 278 277 276 276 275 275 274 275 278 277 277 276 276 275 274 274 274 275 275 277 277 278 277 273 271 270 272 272 273 273 274 273 273 272 270
281 281 281 281 282 280 279 277 276 275 275 274 274 274 273 274 278 278 278 276 275 274 275 274 274 275 274 274 275 277 277 278 279 276 274 273 273 274 274 274 274 274 273
282 282 281 282 280 278 277 276 275 275 274 273 273 273 273 273 278 278 278 275 274 274 274 274 274 274 274 274 274 274 275 276 276 277 276 275 276 277 277 277 276 275 276
282 282 282 281 279 278 277 275 275 274 272 272 272 270 270 271 277 278 277 274 274 274 275 274 274 274 276 278 276 271 273 273 276 277 278 279 279 278 277 274 271 271 270
282 282 282 281 280 278 277 275 274 271 273 273 272 270 270 268 276 277 277 273 268 272 273 275 277 276 278 279 276 270 269 270 271 272 270 271 273 273 275 274 273 270 270
281 280 279 279 279 278 276 272 273 271 272 270 270 269 269 269 269 276 277 274 271 270 271 272 274 277 278 279 278 273 270 273 268 266 267 267 268 269 270 272 273 271 268
278 278 278 278 277 276 274 269 270 270 267 266 266 267 269 270 272 274 276 278 276 271 269 273 273 277 278 278 276 275 275 273 263 263 264 264 266 267 269 269 270 271 272
276 276 273 272 273 273 271 269 267 267 268 267 267 267 267 270 270 275 276 277 278 275 274 274 277 278 276 273 273 273 271 263 261 259 263 265 267 268 269 268 269 270 270
273 272 271 271 269 268 270 269 269 267 267 267 268 268 266 267 268 269 270 270 274 274 274 272 272 274 275 271 267 268 267 265 265 264 265 266 267 266 266 267 266 267 266
271 270 268 268 268 266 267 268 269 267 269 264 265 264 264 265 268 271 270 266 266 270 271 265 262 262 261 262 262 262 263 263 263 264 263 263 264 265 265 266 265 265 264
269 269 268 267 266 266 266 264 274 274 275 277 277 270 264 273 275 276 277 278 278 278 272 259 258 259 261 261 261 261 261 262 263 263 263 263 263 263 263 264 265 264 264
267 268 267 267 266 265 263 264 262 268 276 277 277 277 277 278 278 278 278 278 279 278 262 257 258 259 261 261 260 260 261 262 263 262 262 262 262 262 262 263 263 264 263
263 265 265 262 263 262 262 263 262 261 262 263 269 272 273 274 275 275 276 276 272 271 256 256 260 259 259 259 258 258 259 261 260 260 260 260 260 261 261 262 262 263 263
263 261 262 262 261 261 262 262 262 262 259 256 257 264 266 270 271 272 273 270 269 268 262 259 258 259 258 257 255 254 255 258 256 257 258 259 260 260 260 262 262 263 263
258 261 260 258 258 259 260 258 258 257 256 256 257 258 259 256 254 253 257 260 259 259 257 258 257 256 256 256 253 251 255 254 254 252 254 257 259 260 260 260 261 262 262
258 256 257 255 255 255 254 255 256 255 255 255 257 260 267 263 262 256 255 256 258 255 256 257 256 255 256 255 251 251 254 254 252 251 252 257 258 258 259 260 262 263 262
257 255 253 251 254 254 253 255 254 254 254 253 255 256 264 259 257 258 260 262 261 258 259 259 256 256 256 256 253 253 252 251 251 249 253 256 256 257 257 259 262 261 261
257 254 252 252 254 255 253 252 251 251 252 251 252 253 251 252 253 253 257 258 258 258 258 258 256 256 257 256 253 254 253 253 252 248 253 255 255 256 256 259 261 260 261
255 253 253 254 254 253 251 250 251 252 250 250 248 250 253 253 251 253 256 257 256 256 258 258 257 256 257 255 253 251 251 253 249 252 253 256 256 256 257 260 258 258 259
254 254 255 254 252 250 249 249 250 248 248 250 251 251 251 252 252 251 254 258 259 258 257 257 257 256 256 254 252 250 250 256 254 252 251 255 255 255 257 257 253 255 255
255 256 255 253 253 249 248 249 249 249 250 251 252 252 252 254 256 257 256 257 257 257 256 256 256 255 255 253 251 252 253 257 255 254 254 255 257 261 259 253 253 252 253
Wind_Speed
7 7 8 7 8 7 7 7 7 7 7 7 6 6 6 4 4 3 3 3 3 2 3 2 3 4 3 4 3 3 3 3 8 15 7 9 13 11 12 14 14 13 12
7 7 7 7 7 8 7 7 8 7 7 7 6 5 5 4 3 3 2 1 1 2 3 3 3 3 4 4 3 4 4 3 5 16 11 10 11 11 12 14 13 11 12
8 8 7 7 8 8 8 8 7 7 7 6 6 6 5 4 3 3 2 1 1 3 3 3 3 4 4 2 2 4 3 6 4 9 13 10 10 9 11 11 12 12 10
9 8 8 9 8 8 8 8 7 7 7 6 5 5 4 4 3 4 3 2 3 4 4 3 4 4 4 3 5 5 6 6 7 8 11 11 10 10 9 11 11 9 12
12 10 10 8 7 8 8 7 7 7 6 6 6 4 4 4 3 4 2 3 4 5 5 4 4 4 10 9 5 3 6 6 7 8 11 11 11 11 12 10 12 12 12
12 11 8 9 8 8 8 8 7 7 6 6 5 5 5 3 8 8 5 3 4 6 5 5 4 5 8 11 13 15 13 9 9 8 11 13 16 13 12 11 13 13 16
10 8 9 10 11 10 10 9 8 7 6 6 6 6 6 5 10 9 9 4 5 5 6 6 6 4 5 6 11 16 16 18 20 16 16 14 18 15 16 16 16 15 16
11 11 9 12 11 9 10 9 7 6 8 6 6 6 6 6 12 10 10 5 6 8 7 7 6 7 6 8 10 10 9 9 10 11 13 16 16 17 16 15 16 17 12
12 12 12 11 11 11 11 10 8 8 6 6 4 7 7 5 12 12 9 4 7 9 8 7 7 8 11 16 10 5 9 10 13 22 24 27 29 31 26 14 12 13 13
12 13 11 11 12 13 11 11 7 5 7 7 6 7 7 7 14 14 11 4 5 7 7 8 12 12 16 16 8 3 9 11 13 11 11 15 16 16 24 14 11 11 10
8 8 10 11 12 11 9 6 8 6 6 7 7 5 7 8 9 15 15 7 7 6 6 5 5 14 16 17 14 5 7 14 8 7 8 9 9 10 9 10 11 11 11
8 9 9 10 8 8 10 5 7 8 7 6 6 5 6 7 11 14 18 19 14 8 6 6 5 16 18 12 13 17 18 12 4 6 7 8 8 9 9 11 13 12 11
7 7 6 6 6 8 9 8 6 6 7 7 7 7 6 6 6 17 17 17 18 12 6 10 19 15 9 8 13 15 9 2 3 3 7 8 8 10 12 11 12 12 13
6 6 6 7 6 5 4 6 6 7 7 6 6 7 3 3 5 6 5 6 13 11 12 7 7 11 11 8 2 6 4 3 5 6 8 9 9 8 9 8 9 10 10
5 5 4 4 5 4 4 6 6 3 7 4 4 4 4 4 5 10 9 5 5 10 10 1 1 1 2 2 3 3 3 3 4 5 5 8 9 9 10 9 9 9 9
5 4 4 4 4 4 4 2 10 11 12 14 13 7 2 8 12 15 17 18 21 20 5 3 3 3 3 3 3 3 2 4 4 4 6 7 8 9 10 10 9 9 9
5 5 4 4 5 4 3 3 2 3 10 13 14 15 16 16 18 19 19 21 23 20 3 3 4 4 4 3 3 3 5 4 3 5 6 7 8 9 10 10 10 9 9
5 6 5 3 4 3 3 3 3 3 2 1 4 8 11 14 17 19 19 19 10 7 3 4 4 4 3 3 3 3 3 5 4 5 5 7 7 8 9 9 10 10 10
5 4 4 4 4 4 3 3 2 1 2 2 2 6 7 15 17 19 20 9 8 7 5 4 4 4 3 3 3 3 4 5 4 4 5 6 7 7 9 9 10 14 13
5 7 5 4 3 3 2 2 1 1 2 2 2 3 2 2 1 3 3 6 5 3 3 3 3 3 3 4 3 3 4 4 4 4 4 5 6 7 8 9 9 10 10
4 3 5 4 3 2 2 1 0 0 2 2 2 2 15 9 6 5 4 5 5 5 4 4 3 3 3 4 3 3 4 5 4 4 4 6 6 7 8 8 9 9 10
4 3 3 3 2 2 1 1 1 1 2 2 3 4 16 6 4 6 7 7 6 4 3 3 3 3 4 4 4 4 4 5 5 4 5 5 5 7 7 8 8 8 9
4 4 3 2 2 2 0 2 2 3 3 4 3 3 2 4 5 4 6 6 2 2 2 3 3 5 5 5 4 5 5 7 5 4 5 6 6 7 7 8 7 8 8
3 3 3 1 1 1 1 2 3 4 4 3 4 4 5 5 5 5 6 4 3 3 3 4 5 7 7 6 4 5 5 6 4 5 7 7 8 8 7 7 5 7 7
2 2 1 1 1 2 2 3 3 4 4 4 4 4 4 5 5 4 4 5 6 5 5 5 5 7 9 10 9 9 8 13 8 6 4 8 10 12 11 5 4 4 5
3 3 2 2 2 3 3 3 4 3 4 4 4 4 4 4 5 5 3 4 5 5 6 6 7 10 11 9 9 11 11 13 11 12 9 8 9 10 5 5 6 3 4
Wind_Direction
143 144 138 137 136 129 123 128 132 128 126 121 114 109 107 103 82 71 83 83 39 6 344 10 334 338 353 337 333 321 319 311 289 298 309 319 313 317 319 316 311 308 305
150 142 145 139 135 130 134 138 142 138 124 132 131 132 132 126 120 131 107 38 14 331 303 328 323 344 330 317 318 313 301 289 284 294 312 314 314 315 310 307 309 307 307
150 150 150 151 147 150 149 149 149 145 143 142 149 152 156 159 168 182 155 258 315 278 284 301 306 317 302 297 327 292 286 297 284 293 302 308 307 310 306 304 302 302 305
157 160 163 168 164 158 151 153 154 151 153 161 159 164 167 179 192 209 205 247 268 268 282 281 275 274 284 307 295 280 294 302 294 291 297 303 303 306 297 303 304 303 303
168 174 180 164 156 153 153 154 154 156 162 161 161 166 183 203 210 197 225 254 268 273 276 268 257 261 287 287 283 271 276 276 282 290 295 298 301 305 303 305 296 301 294
176 183 165 162 160 161 155 160 151 158 159 157 171 183 205 219 225 212 223 242 268 273 272 266 273 267 276 291 297 294 292 291 290 293 289 293 297 297 295 294 293 295 295
172 169 171 164 172 169 159 153 159 174 165 176 186 190 207 218 228 222 238 243 261 263 268 270 273 269 271 272 279 285 286 283 288 296 295 290 294 294 295 291 286 284 284
176 175 169 174 175 162 159 169 167 168 179 175 189 196 207 219 230 227 235 235 252 257 251 253 252 263 257 276 275 271 279 288 294 298 295 300 298 296 294 299 303 299 294
182 180 181 177 171 167 179 178 183 173 173 180 180 193 203 213 230 230 232 234 254 259 257 252 247 254 264 279 285 291 300 301 305 306 303 306 311 310 307 304 295 296 298
182 187 180 179 177 183 185 182 178 173 188 184 194 194 204 216 231 235 232 221 244 255 254 258 253 257 267 284 290 297 308 309 305 312 323 312 311 305 309 305 301 298 306
170 163 172 179 183 185 171 159 172 168 166 183 196 198 207 206 225 241 241 227 234 246 247 248 250 271 279 282 302 319 288 296 340 324 309 306 307 307 308 307 314 316 310
159 168 175 177 176 164 165 152 160 167 178 189 195 220 224 220 221 241 243 240 238 244 241 253 254 273 278 290 307 307 301 327 325 306 305 306 305 308 312 309 303 302 296
154 169 157 142 152 157 158 161 153 170 188 202 208 225 227 213 212 237 234 244 249 256 248 254 264 281 288 312 304 295 319 318 282 291 296 297 305 308 308 306 301 301 297
151 156 151 156 149 144 153 165 179 190 199 203 206 224 207 198 197 202 223 243 261 261 265 276 245 254 277 286 299 287 275 267 275 284 292 299 307 307 305 309 307 310 308
136 145 149 140 158 159 187 186 197 207 191 184 211 189 183 219 216 217 218 216 222 238 247 156 125 198 234 262 265 258 257 272 283 277 288 301 299 306 307 312 306 305 301
139 149 159 154 157 158 173 248 236 221 231 243 240 198 219 246 256 259 259 260 254 251 238 164 209 204 213 228 255 264 248 265 270 283 295 291 299 304 306 309 305 302 303
155 159 146 143 153 164 154 157 172 291 248 249 251 254 263 257 251 260 267 268 266 257 186 189 195 198 213 217 241 254 275 269 275 282 288 293 297 299 306 307 309 305 310
97 105 125 132 133 131 140 144 130 138 185 291 306 284 282 282 282 282 281 281 277 253 151 185 206 201 209 212 230 248 266 279 278 278 284 286 288 298 305 305 310 309 309
101 81 90 91 81 83 72 78 97 132 210 230 310 292 295 286 291 291 291 284 270 252 205 199 197 192 206 211 223 242 245 269 261 276 278 278 291 299 300 302 305 305 309
85 88 83 97 96 97 104 123 147 237 251 246 243 246 275 33 271 256 252 274 269 241 224 213 210 191 209 218 221 228 258 265 267 261 264 276 289 292 298 303 302 308 312
107 92 93 75 93 116 116 125 221 234 263 272 258 278 292 283 281 232 241 243 239 228 221 216 214 208 218 226 220 226 244 263 256 261 262 284 290 297 296 295 294 309 309
93 98 90 109 95 80 104 92 38 341 302 291 285 291 299 315 304 302 294 283 260 207 196 206 213 222 229 229 218 228 237 251 259 253 265 277 285 288 290 294 300 310 312
99 107 115 132 142 144 183 233 234 238 247 255 262 279 273 264 264 262 277 279 261 244 215 209 223 250 248 239 219 222 236 249 238 212 266 280 285 286 288 288 306 307 316
103 113 129 140 144 171 217 256 252 248 245 254 261 263 262 265 262 267 274 270 249 237 224 235 238 243 259 247 240 233 231 250 229 234 233 268 278 284 280 282 287 297 305
115 139 157 180 205 224 244 249 244 248 249 250 255 256 254 260 260 255 255 264 264 251 252 252 250 252 252 252 248 241 240 258 259 245 239 253 258 263 264 262 266 294 297
190 198 205 213 226 229 228 238 243 247 253 257 254 253 252 257 266 270 259 261 262 260 261 258 254 248 255 258 253 254 253 254 246 236 228 238 248 260 252 255 273 267 279